AO-07 1 07530U 74089B 22076.58020142 -.00000046 00000-0 -19265-5 0 9992 2 07530 101.8961 56.1907 0011988 217.0281 254.7912 12.53653528165955 UO-11 1 14781U 84021B 22076.52283214 .00000695 00000-0 90603-4 0 9992 2 14781 97.6124 68.1862 0006874 263.0622 96.9811 14.83491138 26418 LO-19 1 20442U 90005G 22076.42594850 .00000090 00000-0 49640-4 0 9996 2 20442 98.7828 39.9381 0012864 79.9157 280.3477 14.33030517679929 HUBBLE 1 20580U 90037B 22076.38945456 .00001936 00000-0 10482-3 0 9992 2 20580 28.4708 58.6360 0002837 122.7441 4.3064 15.10139115552281 MET-2/21 1 22782U 93055A 22076.54010479 .00000053 00000-0 34250-4 0 9996 2 22782 82.5450 87.1892 0021103 244.1250 226.6453 13.83848756441298 AO-27 1 22825U 93061C 22076.58487105 .00000059 00000-0 40911-4 0 9996 2 22825 98.8982 105.6312 0007753 325.4140 34.6537 14.30150644485029 IO-26 1 22826U 93061D 22076.56021689 .00000069 00000-0 44194-4 0 9994 2 22826 98.8925 105.4916 0008097 310.6543 49.3934 14.30493424485277 FO-29 1 24278U 96046B 22076.59631110 -.00000029 00000-0 42609-5 0 9999 2 24278 98.5288 112.8746 0350694 161.4753 199.9536 13.53111618263180 NOAA-15 1 25338U 98030A 22076.58008065 .00000117 00000-0 67331-4 0 9993 2 25338 98.6555 107.2701 0010102 199.6131 160.4662 14.26098348239928 GO-32 1 25397U 98043D 22076.43642714 .00000037 00000-0 36063-4 0 9990 2 25397 98.8076 26.7144 0001900 47.0760 313.0577 14.23737059230332 ISS 1 25544U 98067A 22076.51729341 .00007920 00000-0 14939-3 0 9996 2 25544 51.6428 70.5882 0004057 277.1381 229.0043 15.49454342330965 NO-44 1 26931U 01043C 22076.31432608 .00000092 00000-0 66848-4 0 9990 2 26931 67.0507 296.2184 0007576 276.3994 83.6245 14.30671155 68224 SO-50 1 27607U 02058C 22076.58503391 .00000511 00000-0 91658-4 0 9998 2 27607 64.5542 222.9904 0072215 312.7215 46.7822 14.75954474 34811 CO-55 1 27844U 03031E 22076.55958834 .00000214 00000-0 11558-3 0 9996 2 27844 98.6817 85.6240 0010067 15.0344 345.1132 14.22395995970804 CO-57 1 27848U 03031J 22076.49420526 .00000176 00000-0 99376-4 0 9997 2 27848 98.6865 86.0962 0010216 28.7077 331.4661 14.21960628970611 RS-22 1 27939U 03042A 22076.54025548 .00000917 00000-0 17161-3 0 9995 2 27939 98.1731 217.3716 0013936 134.8376 225.3961 14.67183749987565 NOAA-18 1 28654U 05018A 22076.55901485 .00000161 00000-0 11089-3 0 9993 2 28654 98.9578 147.0396 0013648 227.9749 132.0262 14.12699899867000 CO-58 1 28895U 05043F 22076.33443428 .00000823 00000-0 16521-3 0 9993 2 28895 98.0903 209.2262 0017842 73.2203 287.0955 14.64141784873931 Falconsat-3 1 30776U 07006E 22076.54734558 .00021441 00000-0 41456-3 0 9999 2 30776 35.4327 139.3419 0002671 223.5724 136.4796 15.46846569835310 CO-65 1 32785U 08021C 22076.38930429 .00001678 00000-0 18305-3 0 9993 2 32785 97.6478 50.2365 0012874 171.7807 188.3624 14.89167961752785 AAUSAT2 1 32788U 08021F 22076.53182071 .00003062 00000-0 27360-3 0 9995 2 32788 97.5288 65.1933 0013409 74.5351 285.7351 14.96549834754682 DO-64 1 32789U 08021G 22076.59400705 .00007491 00000-0 44715-3 0 9992 2 32789 97.3497 106.3294 0009081 282.0315 77.9897 15.11367669758040 CO-66 1 32791U 08021J 22076.38467980 .00001845 00000-0 18683-3 0 9992 2 32791 97.6031 55.8324 0014123 132.0341 228.2083 14.92049282753463 RS-30 1 32953U 08025A 22076.54803294 .00000021 00000-0 80971-4 0 9991 2 32953 82.4990 241.0680 0020115 101.1148 259.2199 12.43107656626918 PRISM 1 33493U 09002B 22076.51369415 .00003323 00000-0 28060-3 0 9994 2 33493 98.2258 57.9409 0016223 98.3720 261.9341 14.98779676715200 NOAA-19 1 33591U 09005A 22076.54997095 .00000086 00000-0 71842-4 0 9990 2 33591 99.1600 108.7065 0014851 87.0150 273.2720 14.12538361675213 SRMSAT 1 37841U 11058D 22076.47142240 .00000368 00000-0 56971-4 0 9998 2 37841 19.9720 90.9025 0012056 54.0225 99.9082 14.10731684538233 HRBE 1 37855U 11061F 22076.46761065 .00006232 00000-0 28961-3 0 9991 2 37855 101.7080 147.1896 0159782 337.4307 21.9933 15.10063686567340 RS-40 1 38735U 12041C 22076.54557754 .00000001 00000-0 -62431-4 0 9995 2 38735 82.4799 322.8167 0016284 209.3767 150.6398 12.42584231437100 ZACUBE-1 1 39417U 13066B 22076.48477776 .00001881 00000-0 23711-3 0 9992 2 39417 97.6269 52.2106 0057858 347.8215 12.1596 14.81950061449505 Delfi-N3xt 1 39428U 13066N 22076.36039290 .00001633 00000-0 26126-3 0 9994 2 39428 97.8083 14.7561 0117548 211.6739 147.7358 14.68617789445018 GOMX-1 1 39430U 13066Q 22076.41668608 .00001870 00000-0 34290-3 0 9998 2 39430 97.8146 348.8636 0149556 335.5831 23.8318 14.59934093442868 LO-74 1 39440U 13066AA 22076.51421212 .00001666 00000-0 23309-3 0 9990 2 39440 97.7156 38.0170 0080827 70.0758 290.9137 14.76629898446711 AO-73 1 39444U 13066AE 22076.49842457 .00002194 00000-0 26925-3 0 9993 2 39444 97.6155 54.6199 0056478 336.5521 23.3119 14.82950627447893 SPROUT 1 39770U 14029E 22076.39809587 .00006176 00000-0 65061-3 0 9999 2 39770 97.9289 192.9196 0008925 37.1608 323.0197 14.89686715423951 DTUSAT-2 1 40030U 14033W 22076.35798299 .00002192 00000-0 23591-3 0 9994 2 40030 97.9329 8.8202 0011886 5.0964 355.0372 14.89488005419934 EO-80 1 40032U 14033Y 22076.59698246 .00001596 00000-0 17354-3 0 9990 2 40032 97.9335 9.0715 0011828 5.1676 354.9661 14.89454024419946 HODOYOSHI-1 1 40299U 14070B 22076.49295351 .00005729 00000-0 22563-3 0 9995 2 40299 97.2540 147.3545 0014205 101.7546 315.3027 15.25898265409036 FIREBIRD FU3 1 40377U 15003B 22076.55742829 .00010648 00000-0 34887-3 0 9991 2 40377 99.1124 281.1866 0107600 336.1115 23.5145 15.26413084394386 FIREBIRD FU4 1 40378U 15003C 22076.58825001 .00010583 00000-0 34593-3 0 9991 2 40378 99.1126 281.4149 0107584 335.6835 23.9342 15.26489185394399 GRIFEX 1 40379U 15003D 22076.47849117 .00006831 00000-0 25662-3 0 9992 2 40379 99.1182 268.1275 0121083 15.3754 345.1103 15.20970183393633 XW-2A 1 40903U 15049E 22076.41813980 .00020065 00000-0 36458-3 0 9998 2 40903 97.1967 135.0158 0012816 96.3696 320.8331 15.49491252364990 XW-2C 1 40906U 15049H 22076.48675667 .00006230 00000-0 30940-3 0 9994 2 40906 97.4945 80.7078 0013040 326.1352 185.2769 15.17965740358963 XW-2D 1 40907U 15049J 22076.47861672 .00007143 00000-0 34937-3 0 9991 2 40907 97.4939 80.6141 0012182 322.3563 190.0103 15.18454228359002 LILACSAT-2 1 40908U 15049K 22076.51896476 .00003745 00000-0 20276-3 0 9992 2 40908 97.5163 78.0608 0014846 341.8265 133.8776 15.15155756358568 XW-2E 1 40909U 15049L 22076.53152536 .00010470 00000-0 46607-3 0 9996 2 40909 97.4677 85.0237 0010822 302.3347 176.4265 15.21600558359421 XW-2F 1 40910U 15049M 22076.50100169 .00010378 00000-0 46883-3 0 9993 2 40910 97.4763 84.1074 0011910 302.7303 216.2305 15.21088211359191 XW-2B 1 40911U 15049N 22076.49714163 .00006900 00000-0 33855-3 0 9998 2 40911 97.4923 81.2606 0012226 323.4342 187.6088 15.18355041358892 DCBB 1 40912U 15049P 22076.48487939 .00011521 00000-0 47890-3 0 9995 2 40912 97.4422 88.4566 0011352 265.5404 250.0493 15.23899522359737 TW-1A 1 40928U 15051D 22076.53190486 .00033621 00000-0 54573-3 0 9990 2 40928 97.0507 100.4250 0009154 22.1344 103.7826 15.52620542363944 IO-86 1 40931U 15052B 22075.52240011 .00000096 00000-0 -75845-4 0 9990 2 40931 5.9977 111.8896 0013930 291.6971 68.1867 14.76746990349589 ATHENOXAT-1 1 41168U 15077C 22076.13822551 .00015692 00000-0 70431-3 0 9995 2 41168 14.9876 53.3156 0010172 22.9254 63.3551 15.18351064346241 ChubuSat-2 1 41338U 16012B 22076.50722043 .00001799 00000-0 13090-3 0 9991 2 41338 31.0020 249.1627 0013679 320.7637 39.2007 15.00968866333652 ChubuSat-3 1 41339U 16012C 22076.50583269 .00002061 00000-0 15054-3 0 9992 2 41339 31.0102 246.1530 0013739 329.5891 30.3953 15.01082867333651 Horyu-4 1 41340U 16012D 22076.45753018 .00002840 00000-0 20147-3 0 9993 2 41340 31.0036 226.3405 0013755 5.4409 354.6375 15.02623947333878 e-st@r-II 1 41459U 16025D 22076.52287110 .00015123 00000-0 69212-3 0 9995 2 41459 98.1727 235.0866 0151830 220.7787 138.1989 15.10838083323600 AAUSAT4 1 41460U 16025E 22076.43286546 .00027137 00000-0 11334-2 0 9998 2 41460 98.1679 240.4360 0136493 199.9615 159.6212 15.15422042323989 LO-87 1 41557U 16033B 22076.57089025 .00012853 00000-0 41544-3 0 9998 2 41557 97.3849 174.3148 0011357 351.4240 123.0647 15.32158495323305 NuSat2 1 41558U 16033C 22076.58992984 .00012113 00000-0 36717-3 0 9992 2 41558 97.4021 179.5283 0010293 341.5582 146.1554 15.34233903323553 Lapan A3 1 41603U 16040E 22076.63655946 .00001671 00000-0 79561-4 0 9993 2 41603 97.2203 117.6186 0014838 119.6653 355.7022 15.20375114318087 Pratham 1 41783U 16059A 22076.59401532 .00000368 00000-0 79729-4 0 9995 2 41783 97.9268 121.7741 0034843 103.7976 256.7108 14.63258232292192 TY-1 1 41844U 16066D 22076.49921343 .00013092 00000-0 48138-3 0 9994 2 41844 97.3955 89.0647 0011725 251.7233 267.1319 15.27954832297557 CAS-2T 1 41847U 16066G 22076.45984534 .00000948 00000-0 15082-3 0 9992 2 41847 98.5619 141.1954 0365403 124.9105 238.6996 14.38418961281124 EO-88 1 42017U 17008BX 22076.13806852 .00011625 00000-0 38543-3 0 9991 2 42017 97.2806 143.7630 0005001 203.3783 156.7232 15.31408446282930 CAS-4B 1 42759U 17034B 22076.46741995 .00004140 00000-0 25584-3 0 9990 2 42759 43.0166 119.4192 0007257 63.8948 75.1358 15.11092422262438 CAS-4A 1 42761U 17034D 22076.51029378 .00004268 00000-0 26268-3 0 9994 2 42761 43.0167 118.0384 0007540 64.9291 82.6494 15.11183074262447 NIUSat 1 42766U 17036B 22076.56107062 .00005878 00000-0 24086-3 0 9997 2 42766 97.2151 117.7198 0012583 294.6160 65.3766 15.24573865262798 Aalto 1 1 42775U 17036L 22076.56564311 .00004982 00000-0 20702-3 0 9997 2 42775 97.2108 117.7748 0011287 294.2438 65.7620 15.24193580262778 URSA MAIOR 1 42776U 17036M 22076.57564016 .00005423 00000-0 22231-3 0 9991 2 42776 97.2122 118.4308 0011004 292.8757 67.1319 15.24611186262802 Max Valier Sat 1 42778U 17036P 22076.59528046 .00005750 00000-0 23076-3 0 9999 2 42778 97.2188 120.8975 0009594 294.0373 65.9861 15.25314264262897 Pegasus 1 42784U 17036V 22076.35395924 .00007788 00000-0 29903-3 0 9995 2 42784 97.2128 121.3492 0009141 297.6913 62.3398 15.26682585262953 NUDATSat 1 42787U 17036Y 22076.58152667 .00017718 00000-0 61177-3 0 9991 2 42787 97.2173 125.0805 0008072 285.0816 74.9506 15.29976565263037 SUCHAI 1 1 42788U 17036Z 22076.57189785 .00009020 00000-0 33285-3 0 9998 2 42788 97.2137 122.9751 0008479 291.2170 68.8164 15.27958983263143 SKCUBE 1 42789U 17036AA 22076.59709537 .00008591 00000-0 32187-3 0 9996 2 42789 97.2134 122.5539 0008481 292.4178 67.6163 15.27470461263040 VZLUSAT 1 1 42790U 17036AB 22076.58332480 .00011885 00000-0 41255-3 0 9992 2 42790 97.2164 125.0619 0007548 283.3714 76.6685 15.29897708263183 VENTA 1 1 42791U 17036AC 22076.60327024 .00008073 00000-0 30553-3 0 9998 2 42791 97.2130 122.5079 0008175 293.4224 66.6156 15.27160108263035 Robusta 1B 1 42792U 17036AD 22076.57980337 .00008766 00000-0 32454-3 0 9998 2 42792 97.2133 123.0397 0008026 292.4737 67.5653 15.27862258263083 D-SAT 1 42794U 17036AF 22076.55849294 .00002850 00000-0 24592-3 0 9996 2 42794 97.4540 86.8377 0125087 33.4976 327.4075 14.92134084257773 TechnoSat 1 42829U 17042E 22076.58895351 .00000901 00000-0 94909-4 0 9995 2 42829 97.4337 296.0342 0013083 319.9583 40.0671 14.91591125254398 QIKCOM-1 1 42983U 98067NF 22076.33243304 .00049936 00000-0 27627-3 0 9993 2 42983 51.6352 304.0761 0002389 255.3481 104.7256 15.79077365250306 AO-91 1 43017U 17073E 22076.35160728 .00002600 00000-0 20020-3 0 9997 2 43017 97.6866 334.3074 0252717 129.0233 233.3776 14.80544741233486 PICSAT 1 43132U 18004X 22076.21461546 .00010166 00000-0 36719-3 0 9995 2 43132 97.3796 153.2607 0007362 332.9042 27.1812 15.28647735232300 AO-92 1 43137U 18004AC 22076.43680816 .00007157 00000-0 26953-3 0 9992 2 43137 97.3766 152.5302 0007300 336.9136 23.1774 15.27382320232292 TianYi 2 1 43155U 18008A 22076.47541139 .00007542 00000-0 41791-3 0 9999 2 43155 97.3652 137.8690 0018232 103.2028 7.1734 15.13937314229358 Zhou Enlai 1 43156U 18008B 22076.47478669 .00007930 00000-0 44356-3 0 9998 2 43156 97.3704 137.7237 0015350 102.9860 7.7619 15.13627797229282 TianYi 6 1 43158U 18008D 22076.39301016 .00006810 00000-0 39010-3 0 9999 2 43158 97.3643 135.7953 0014482 102.1051 317.3878 15.12831961229183 S-Net D 1 43186U 18014G 22076.56455349 .00002006 00000-0 17692-3 0 9990 2 43186 97.6655 344.0577 0008974 242.4063 117.6248 14.97509661225164 S-Net B 1 43187U 18014H 22076.36414134 .00002096 00000-0 18463-3 0 9992 2 43187 97.6653 343.8168 0008974 243.1315 116.8990 14.97508028225132 S-Net A 1 43188U 18014J 22076.56483547 .00001996 00000-0 17605-3 0 9994 2 43188 97.6657 344.0718 0008982 242.5548 117.4761 14.97507937225165 S-Net C 1 43189U 18014K 22076.56542235 .00001932 00000-0 17062-3 0 9992 2 43189 97.6652 344.0042 0008980 242.5339 117.4970 14.97506582223713 FMN 1 1 43192U 18015A 22076.48321101 .00025330 00000-0 79091-3 0 9993 2 43192 97.5183 219.5580 0011932 358.3382 41.8518 15.33112722229335 Shaonian Xing 1 43199U 18015H 22076.50692991 .00016673 00000-0 55773-3 0 9992 2 43199 97.4977 215.5003 0014110 12.0626 56.0790 15.30960271229364 SurfSat 1 43614U 18070B 22076.54521966 .00026993 00000-0 51217-3 0 9997 2 43614 93.0235 59.9546 0013560 36.8204 323.3983 15.48125124196817 CP-7 DAVE 1 43615U 18070C 22076.43737092 .00023764 00000-0 46073-3 0 9992 2 43615 93.0237 59.8124 0013853 37.0068 323.2143 15.47511378196778 ELFIN-B 1 43616U 18070D 22076.47720333 .00042977 00000-0 65453-3 0 9997 2 43616 93.0166 60.5679 0012426 34.1004 326.1055 15.54272987197017 ELFIN-A 1 43617U 18070E 22076.50759808 .00043190 00000-0 63356-3 0 9999 2 43617 93.0239 61.7463 0011339 32.6254 327.5707 15.55315758197053 CubeBel-1 1 43666U 18083E 22076.63827509 .00010535 00000-0 47185-3 0 9994 2 43666 97.4309 106.4392 0012375 299.0075 183.6264 15.21371032187511 Changshagaoxin 1 43669U 18083H 22076.59359265 .00009186 00000-0 42971-3 0 9999 2 43669 97.4258 102.6511 0008396 297.8368 180.1893 15.19951104187349 Ten-Koh 1 43677U 18084G 22076.60274652 .00001171 00000-0 12476-3 0 9990 2 43677 97.9483 205.9234 0015268 210.2817 149.7520 14.90790803183996 PO-101 1 43678U 18084H 22076.57456880 .00000682 00000-0 73111-4 0 9992 2 43678 97.9530 208.8627 0008789 224.5402 135.5123 14.91964039184152 IRVINE 01 1 43693U 18088D 22076.32284170 .00025440 00000-0 83357-3 0 9998 2 43693 85.0358 12.9770 0017780 93.2812 267.0470 15.31360952186095 QO-100 1 43700U 18090A 22076.29493701 .00000142 00000-0 00000-0 0 9991 2 43700 0.0036 194.7482 0002397 187.2471 284.8060 1.00272509 12109 Reaktor Hello World 1 43743U 18096AA 22076.47694214 .00008789 00000-0 29067-3 0 9998 2 43743 97.3590 156.8876 0016455 32.3500 327.8747 15.31455315183879 MinXSS-2 1 43758U 18099A 22076.14340479 .00003123 00000-0 27774-3 0 9992 2 43758 97.6342 146.2907 0014575 209.0269 151.0144 14.96725132179293 AO-95 1 43770U 18099N 22076.43119690 .00001309 00000-0 12193-3 0 9990 2 43770 97.6308 145.1651 0013466 220.2163 139.8063 14.95892795179258 RANGE-B 1 43772U 18099Q 22076.12535065 .00002696 00000-0 24283-3 0 9999 2 43772 97.6405 146.3387 0013546 206.7634 153.2890 14.96363319179229 RANGE-A 1 43773U 18099R 22076.46660645 .00002028 00000-0 18730-3 0 9999 2 43773 97.6238 144.2149 0012808 205.1790 154.8809 14.95635667179249 MOVE-II 1 43780U 18099Y 22076.45942707 .00003093 00000-0 27449-3 0 9998 2 43780 97.6334 146.1162 0012735 213.8613 146.1796 14.96840720179292 SNUSat 2 1 43782U 18099AA 22076.42280443 .00001497 00000-0 13801-3 0 9992 2 43782 97.6315 145.5912 0011892 203.5499 156.5179 14.96095657179279 SnugLite 1 43784U 18099AC 22076.47207146 .00002708 00000-0 24443-3 0 9998 2 43784 97.6275 145.2978 0014074 211.1955 148.8432 14.96267332179303 ITASat 1 1 43786U 18099AE 22076.50261118 .00001120 00000-0 10450-3 0 9993 2 43786 97.6330 146.0989 0014285 212.8155 147.2180 14.96112299179306 EAGLET 1 1 43790U 18099AJ 22076.47805952 .00001881 00000-0 17093-3 0 9998 2 43790 97.6327 146.5862 0012347 214.3540 145.6885 14.96376807179035 ESEO 1 43792U 18099AL 22076.44988559 .00000749 00000-0 71824-4 0 9997 2 43792 97.6277 145.8971 0012528 212.8525 147.1918 14.95978126179070 CSIM 1 43793U 18099AM 22076.47407483 .00003748 00000-0 32603-3 0 9996 2 43793 97.6344 146.9207 0012355 203.6427 156.4229 14.97501135179114 Astrocast 0.1 1 43798U 18099AS 22076.50640571 .00001687 00000-0 15199-3 0 9993 2 43798 97.6331 146.9650 0011961 193.7517 166.3381 14.96856164179357 JO-97 1 43803U 18099AX 22076.14582683 .00002789 00000-0 25015-3 0 9991 2 43803 97.6302 145.4897 0014020 211.4813 148.5571 14.96484838179263 Suomi 100 1 43804U 18099AY 22076.15872085 .00001506 00000-0 13768-3 0 9999 2 43804 97.6294 145.4409 0014106 212.7697 147.2651 14.96422614179272 Al Farabi 2 1 43805U 18099AZ 22076.57646009 .00002786 00000-0 24787-3 0 9995 2 43805 97.6317 146.2431 0014248 210.8975 149.1411 14.96812164179355 CHOMPTT 1 43855U 18104G 22076.54921094 .00005157 00000-0 19959-3 0 9994 2 43855 85.0328 112.3494 0015044 209.7516 150.2874 15.25823227180701 ISAT 1 43879U 18111D 22076.53098751 .00002281 00000-0 20128-3 0 9997 2 43879 97.6717 343.8168 0011594 268.4636 91.5258 14.97334363175914 UWE-4 1 43880U 18111E 22076.47844048 .00002482 00000-0 21757-3 0 9992 2 43880 97.6744 344.4068 0010389 268.5006 91.5026 14.97532422175936 Sparrow 1 43881U 18111F 22076.50328508 .00002533 00000-0 22134-3 0 9992 2 43881 97.6774 344.6271 0010147 267.5886 92.4174 14.97641357175948 Lume 1 1 43908U 18111AJ 22076.58516595 .00007538 00000-0 27352-3 0 9992 2 43908 97.2049 327.3442 0020733 45.5536 314.7396 15.28395645179351 FO-98 1 43933U 19003B 22076.55988531 .00145683 00000-0 25593-2 0 9999 2 43933 97.1474 114.8587 0011327 133.8353 226.3837 15.49917211175969 FO-99 1 43937U 19003F 22076.57567653 .00008875 00000-0 32225-3 0 9995 2 43937 97.1428 113.5999 0023431 120.4185 239.9375 15.28261334175938 MYSat 1 1 44045U 18092F 22076.56733340 .00025619 00000-0 50591-3 0 9991 2 44045 51.6351 168.4540 0007660 111.9445 248.2357 15.46953748173613 AstroCast 0.2 1 44083U 19018F 22076.41923298 .00007893 00000-0 31864-3 0 9995 2 44083 97.3350 137.1188 0013675 94.4519 265.8282 15.24961884164452 AISTechSat 3 1 44103U 19018AB 22076.13855261 .00006157 00000-0 24234-3 0 9996 2 44103 97.3215 137.2703 0014174 101.8930 258.3899 15.25893470164563 AISat 1 1 44104U 19018AC 22076.49424314 .00006600 00000-0 19404-3 0 9993 2 44104 97.4000 159.3734 0055533 102.1230 258.6242 15.33888925165493 Prox-1 1 44339U 19036A 22076.26962928 .00002933 00000-0 62835-3 0 9997 2 44339 24.0012 55.1326 0010015 284.9919 74.9464 14.54369414144919 Oculus-ASR 1 44348U 19036K 22076.43635616 .00048153 00000-0 54569-3 0 9996 2 44348 28.5075 102.2581 0276129 6.6386 353.7766 15.26531278150426 Armadillo 1 44352U 19036P 22076.24293987 .00089721 -41594-5 75092-3 0 9990 2 44352 28.5250 50.8787 0207646 87.7080 274.7279 15.45344791150874 NO-104 1 44354U 19036R 22076.40370835 .00055464 -52662-5 59107-3 0 9992 2 44354 28.5238 90.9884 0268296 22.0424 339.1474 15.28855867150535 NO-103 1 44355U 19036S 22076.41020830 .00216383 68692-5 89165-3 0 9996 2 44355 28.5212 335.2457 0116355 211.9543 147.3967 15.74716364151680 Move-IIb 1 44398U 19038N 22076.56409634 .00011337 00000-0 58631-3 0 9994 2 44398 97.6203 45.2994 0025127 87.6948 272.7158 15.16144546149103 SONATE 1 44400U 19038Q 22076.59786583 .00004370 00000-0 24519-3 0 9999 2 44400 97.6276 44.8222 0026137 89.2771 271.1449 15.13601311149033 BeeSat 9 1 44412U 19038AC 22076.44135026 .00006596 00000-0 35359-3 0 9992 2 44412 97.6262 45.2314 0023301 92.7267 267.6632 15.15092489148751 JAISAT-1 1 44419U 19038F 22076.45603970 .00006928 00000-0 36643-3 0 9994 2 44419 97.6266 46.0109 0022185 90.3138 270.0636 15.15573000149119 LightSail-2 1 44420U 19036AC 22076.48642385 .00032437 00000-0 55064-2 0 9991 2 44420 24.0033 9.9500 0006508 343.7432 16.2853 14.67807226143507 Taurus 1 1 44530U 19059C 22076.51334392 .00002077 00000-0 58727-3 0 9995 2 44530 98.5429 174.1993 0014010 43.9663 316.2659 14.46622919132558 Duchifat 3 1 44854U 19089C 22076.31989826 .00003844 00000-0 30675-3 0 9998 2 44854 36.9666 286.2373 0007255 203.8523 323.6351 15.00316378124088 OPS-SAT 1 44878U 19092F 22076.57512813 .00006732 00000-0 33081-3 0 9997 2 44878 97.4783 261.4296 0012062 303.4836 56.5244 15.18314116124249 TO-108 1 44881U 19093C 22076.53131601 .00000649 00000-0 89148-4 0 9997 2 44881 97.8979 157.0499 0016166 122.2664 238.0124 14.81598256121164 FloripaSat 1 1 44885U 19093G 22076.44420663 .00002087 00000-0 26448-3 0 9991 2 44885 97.9011 158.0239 0015791 129.4064 230.8554 14.82736891121218 RS-44 1 44909U 19096E 22076.56163581 .00000032 00000-0 81875-4 0 9991 2 44909 82.5179 291.3397 0217446 174.3288 186.0354 12.79712325103753 Phoenix 1 45258U 98067RB 22076.28880711 .00085472 00000-0 63565-3 0 9990 2 45258 51.6352 33.2979 0004735 157.6349 202.4856 15.72072321117843 BY70-2 1 45857U 20042B 22076.42340979 .00006719 00000-0 92727-3 0 9995 2 45857 97.9598 154.2280 0011468 61.3928 298.8441 14.78433872 91855 UPMSat 2 1 46276U 20061E 22076.20604228 .00003475 00000-0 17741-3 0 9997 2 46276 97.4007 149.1525 0002829 113.8396 246.3134 15.17358120 84887 AmicalSat 1 46287U 20061R 22076.49932726 .00003392 00000-0 20349-3 0 9993 2 46287 97.4553 148.4698 0001855 203.2556 156.8591 15.11606683 84570 SALSAT 1 46495U 20068K 22076.56611971 .00001852 00000-0 13822-3 0 9992 2 46495 97.7232 17.9221 0015387 223.9784 136.0218 15.04011507 80374 BY70-3 1 46839U 20079N 22076.56090799 .00020414 00000-0 55002-3 0 9996 2 46839 97.2082 150.1051 0004919 310.7361 166.0737 15.37845288 76102 SPOC 1 46921U 98067RR 22076.31057958 .00074411 00000-0 63616-3 0 9999 2 46921 51.6370 45.5669 0003641 80.7975 279.3433 15.68788157 77439 Bobcat-1 1 46922U 98067RS 22076.28335115 .00308518 00000-0 10993-2 0 9997 2 46922 51.6339 33.3570 0005524 114.4200 245.7382 15.87512878 77558 Neutron-1 1 46923U 98067RT 22076.47507214 .00070932 00000-0 60993-3 0 9992 2 46923 51.6376 45.1742 0003877 84.0845 276.0593 15.68665777 77487 CAPE 3 1 47309U 21002A 22076.48842163 .00006775 00000-0 29709-3 0 9996 2 47309 60.6874 349.9824 0018900 212.0390 147.9550 15.22858482 64433 AO-109 1 47311U 21002C 22076.25103858 .00006023 00000-0 26024-3 0 9998 2 47311 60.6879 348.8820 0016548 203.2630 156.7711 15.23574830 64407 MiTEE 1 1 47314U 21002F 22076.47860247 .00012096 00000-0 46482-3 0 9994 2 47314 60.6864 343.6208 0018276 187.0387 173.0449 15.26700133 64539 ExoCube 2 1 47319U 21002L 22076.48689866 .00006304 00000-0 27496-3 0 9995 2 47319 60.6876 348.8472 0016401 206.8420 153.1820 15.23183027 64393 UVSQ-SAT 1 47438U 21006AB 22076.41097539 .00003867 00000-0 21371-3 0 9991 2 47438 97.4495 137.3410 0011251 229.3636 130.6618 15.14436405 63340 YUSAT 1 1 47439U 21006AC 22076.13636849 .00004768 00000-0 26112-3 0 9993 2 47439 97.4503 137.1150 0011090 230.5333 129.4919 15.14642274 63308 SOMP 2b 1 47445U 21006AJ 22076.39285225 .00004377 00000-0 24296-3 0 9993 2 47445 97.4465 137.0604 0010855 233.8515 126.1713 15.14207008 63332 IDEASSat 1 47458U 21006AX 22076.43092566 .00004080 00000-0 22776-3 0 9998 2 47458 97.4559 137.5087 0009958 230.9623 129.0723 15.14053365 63338 RSP-01 1 47925U 98067SB 22076.39299998 .00081185 00000-0 73523-3 0 9998 2 47925 51.6384 54.3770 0003338 69.3246 290.8108 15.67340819 57294 TAUSAT-1 1 47926U 98067SC 22075.22612000 .00173202 00000-0 11594-2 0 9994 2 47926 51.6345 55.5430 0003770 66.6393 293.5002 15.74211811 57167 Tsuru 1 47927U 98067SD 22076.39597123 .00066467 00000-0 65929-3 0 9998 2 47927 51.6375 55.8906 0002934 63.8609 296.2688 15.65157818 57270 STARS-EC 1 47928U 98067SE 22076.29622014 .00222134 00000-0 12201-2 0 9995 2 47928 51.6337 49.9246 0007340 85.3440 274.8399 15.78530433 57327 Maya-2 1 47929U 98067SF 22076.39269261 .00064786 00000-0 64426-3 0 9992 2 47929 51.6375 55.8677 0002770 62.2966 297.8310 15.65104642 57236 OPUSAT-II 1 47930U 98067SG 22076.34602807 .00235920 00000-0 12066-2 0 9998 2 47930 51.6312 48.0050 0004783 93.5987 266.5561 15.80085090 57372 GuaraniSat-1 1 47931U 98067SH 22076.38433014 .00066630 00000-0 65908-3 0 9999 2 47931 51.6385 55.8263 0002783 61.2786 298.8489 15.65226731 57270 CubeSX-Sirius-HSE 1 47951U 21022V 22076.45750553 .00004862 00000-0 33049-3 0 9996 2 47951 97.5402 337.9215 0023163 99.3371 261.0433 15.06594109 54145 CubeSX-HSE 1 47952U 21022W 22076.51448448 .00004905 00000-0 33287-3 0 9993 2 47952 97.5408 337.9903 0023262 98.9947 261.3867 15.06645855 54150 KSU-Cubesat 1 47954U 21022Y 22076.49073592 .00002945 00000-0 20088-3 0 9993 2 47954 97.5399 338.0349 0022745 98.8243 261.5561 15.06790288 53872 GRBAlpha 1 47959U 21022AD 22076.58018404 .00004893 00000-0 33194-3 0 9995 2 47959 97.5411 338.0832 0023164 99.2932 261.0861 15.06661300 52986 Orbicraft-Zorkiy 1 47960U 21022AE 22076.56231233 .00004578 00000-0 31006-3 0 9992 2 47960 97.5422 338.1629 0022953 98.4273 261.9532 15.06757763 53679 STECCO 1 47962U 21022AG 22076.63206534 .00006796 00000-0 44097-3 0 9996 2 47962 97.5378 338.6977 0018231 92.3855 335.0003 15.08255000 53029 DO-111 1 47963U 21022AH 22076.55008140 .00011116 00000-0 67881-3 0 9999 2 47963 97.5410 339.1559 0020134 89.1213 271.2323 15.10294435 53064 MO-110 1 47964U 21022AJ 22076.28754144 .00005068 00000-0 32676-3 0 9995 2 47964 97.5392 338.5494 0020796 92.0109 268.3502 15.08567970 52986 FEES 1 48082U 21022AL 22076.23493344 .00006046 00000-0 38946-3 0 9997 2 48082 97.5407 338.3635 0017273 89.2209 271.0998 15.08581686 52671 RamSat 1 48850U 98067SL 22076.34706758 .00040806 00000-0 52304-3 0 9997 2 48850 51.6394 63.7906 0005650 74.9552 285.2066 15.58731646 42915 MO-112 1 48868U 98067SP 22076.34533461 .00210850 00000-0 12879-2 0 9995 2 48868 51.6324 55.4845 0007006 90.6578 269.5224 15.76177373 41806 TUBIN 1 48900U 21059X 22076.54953337 .00004775 00000-0 27325-3 0 9999 2 48900 97.5371 206.7288 0011453 64.7367 65.7088 15.13069493 40015 IT-SPINS 1 49017U 21013G 22076.48551738 .00004986 00000-0 21248-3 0 9993 2 49017 51.5968 119.2084 0009591 97.6126 262.5941 15.24643160 39741 LEDSAT 1 49069U 21073D 22076.49864519 .00003087 00000-0 20410-3 0 9992 2 49069 97.5317 151.2328 0026482 248.2307 111.6103 15.07841236 31972 CUTE 1 49263U 21088D 22076.50166280 .00002193 00000-0 17006-3 0 9990 2 49263 97.5988 146.2816 0021183 22.8902 337.3262 15.02253038 25617 Binar-1 1 49272U 98067SR 22076.37714455 .00042628 00000-0 57450-3 0 9993 2 49272 51.6386 66.9734 0004491 6.0916 354.0130 15.57379073 25268 Maya-3 1 49273U 98067SS 22076.43341241 .00055753 00000-0 69339-3 0 9992 2 49273 51.6390 65.8514 0004271 14.0463 346.0648 15.59399752 25285 Maya-4 1 49274U 98067ST 22076.44041595 .00055559 00000-0 69441-3 0 9991 2 49274 51.6382 65.8977 0004150 13.3083 346.8018 15.59270820 25289 CUAVA-1 1 49275U 98067SU 22076.53321968 .00049347 00000-0 63482-3 0 9994 2 49275 51.6395 65.5735 0004702 20.0074 71.8644 15.58555327 25244 TeikyoSat 4 1 49396U 21102B 22076.59909730 .00000442 00000-0 39648-4 0 9990 2 49396 97.5521 137.4942 0019208 202.3982 157.6405 15.00452184 19275 Z-Sat 1 49399U 21102E 22076.51947870 .00002338 00000-0 18116-3 0 9994 2 49399 97.5472 137.7863 0022797 182.8174 177.2926 15.02179211 19286 KOSEN 1 1 49402U 21102H 22076.50925503 .00002511 00000-0 18939-3 0 9993 2 49402 97.5429 137.8466 0022947 170.5563 189.6098 15.03133368 19298 HO-113 1 50466U 21131B 22076.42506431 .00000122 00000-0 54666-4 0 9997 2 50466 98.5862 153.7072 0005515 73.0524 287.1267 14.38450748 11686 Tevel 1 50999U 22002R 22076.44436953 .00004955 00000-0 28073-3 0 9999 2 50999 97.4911 145.0563 0011876 24.6316 335.5480 15.13400899 9506 Grizu-263a 1 51025U 22002AT 22076.42591319 .00008116 00000-0 44833-3 0 9991 2 51025 97.5081 145.2263 0013659 27.7478 332.4480 15.14095458 9507 NO-116 1 51031U 22002AZ 22076.42795587 .00006178 00000-0 34417-3 0 9994 2 51031 97.5035 145.1873 0013974 27.9047 332.2931 15.13889195 9500 IRIS-A 1 51044U 22002BN 22076.20947046 .00003489 00000-0 20365-3 0 9992 2 51044 97.4925 144.7724 0009995 31.2794 328.9030 15.12544105 9461 DELFI-PQ 1 51074U 22002CU 22076.44085076 .00007515 00000-0 40195-3 0 9994 2 51074 97.5165 145.4273 0015321 57.2860 302.9847 15.15248521 9510 SO-115 1 51080U 22002DA 22076.44578870 .00005347 00000-0 28932-3 0 9996 2 51080 97.5182 145.4311 0015052 57.0671 303.2006 15.14982485 9512 SO-114 1 51081U 22002DB 22076.44635536 .00005486 00000-0 29672-3 0 9996 2 51081 97.5170 145.4234 0015421 57.1476 303.1238 15.14978068 9516 GASPACS 1 51439U 98067TB 22076.55787901 .00095322 00000-0 12457-2 0 9993 2 51439 51.6390 68.9227 0002019 198.9532 161.1386 15.57861935 7813 /EX